Starlink 2390

decayed
NORAD ID: 47809 Int'l Des: 2021-018 Owner: SPXS Country: US Constellation: starlink
LEOCIRCULAR
Group

About Starlink 2390

Description loading...

Altitude History

Altitude vs Time

uPlot chart will show altitude changes over time

Two-Line Element Set

1 47809U 21018Y 24010.77274825 .06347290 12328-4 76252-3 0 9995
2 47809 53.0212 106.6029 0007080 344.1842 154.0964 16.35594942158492
Epoch: Jan 10, 2024 • Age: 18134 hours

Current Status

Position data unavailable
Launch Date Mar 11, 2021
Age 4.9 years
Decay Date Jan 11, 2024
Type internet

Technical Details

Classification Payload
Mass 260.00 kg
Dry Mass 248.00 kg
Total Mass 260.00 kg
Length 0.20 m
Diameter 2.80 m
Span 9.00 m
Shape Box + pan
Manufacturer SPXS
Bus Type Starlink
Phase Status Reentered
Owner/State SPXS/US

Large Constellations

Loading constellations...